Marrakech, Morocco

9:02 AM WEST on August 22, 2017 (GMT +0100)
Marrakech

Weather History for GMMX - November, 2011

Change the Weather History Date:

Saturday, November 19, 2011

  Actual Average Record
Temperature  
Mean Temperature 60 °F -  
Max Temperature 68 °F 66 °F 86 °F (2007)
Min Temperature 52 °F 45 °F 42 °F (1999)
Degree Days  
Heating Degree Days 5    
Growing Degree Days 10 (Base 50)    
Moisture  
Dew Point 53 °F    
Average Humidity 80    
Maximum Humidity 100    
Minimum Humidity 43    
Precipitation  
Precipitation 0.00 in 0.05 in - ()
Sea Level Pressure  
Sea Level Pressure 29.91 in    
Wind  
Wind Speed 5 mph ()    
Max Wind Speed 14 mph    
Max Gust Speed -    
Visibility 6.0 miles    
Events Rain    
Averages and records for this station are not official NWS values.
T = Trace of Precipitation, MM = Missing Value Source: Averaged Metar Reports

Daily Weather History Graph

Daily Weather History Graph

Search for Another Location

Airport or City:

Trip Planner

Search our weather history database for the weather conditions in past years. The results will help you decide how hot, cold, wet, or windy it might be!

Date:

Astronomy

Nov. 19, 2011 Rise Set
Actual Time 7:03 AM WET 5:31 PM WET
Civil Twilight 6:37 AM WET 5:57 PM WET
Nautical Twilight 6:07 AM WET 6:26 PM WET
Astronomical Twilight 5:38 AM WET 6:55 PM WET
Moon 12:32 AM WET (11/19) 1:20 PM WET (11/19)
Length of Visible Light 11h 20m
Length of Day
10h 28m
Last Quarter, 40% of the Moon is Illuminated
Nov 19
Last Quarter
Nov 25
New
Dec 2
First Quarter
Dec 10
Full
Dec 18
Last Quarter

Hourly Weather History & Observations

Time (WET) Temp. Dew Point Humidity Pressure Visibility Wind Dir Wind Speed Gust Speed Precip Events Conditions
12:00 AM 55 °F 51 °F 80% 29.99 in 5 mi SW 3.5 mph - -   Scattered Clouds
12:00 AM 55.4 °F 50.0 °F 82% 29.98 in 5.0 mi SW 3.5 mph - N/A   Scattered Clouds
12:30 AM 55.4 °F 50.0 °F 82% 29.98 in 5.6 mi SW 4.6 mph - N/A   Scattered Clouds
1:00 AM 53.6 °F 50.0 °F 88% 29.98 in 5.6 mi SW 2.3 mph - N/A   Scattered Clouds
1:30 AM 53.6 °F 50.0 °F 88% 29.95 in 6.2 mi SW 2.3 mph - N/A   Scattered Clouds
2:00 AM 53.6 °F 50.0 °F 88% 29.95 in 6.2 mi WSW 4.6 mph - N/A   Scattered Clouds
2:30 AM 53.6 °F 48.2 °F 82% 29.98 in 6.2 mi SW 3.5 mph - N/A   Scattered Clouds
3:00 AM 53 °F 49 °F 82% 29.97 in 6 mi WSW 3.5 mph - -   Scattered Clouds
3:00 AM 51.8 °F 48.2 °F 88% 29.95 in 6.2 mi WSW 4.6 mph - N/A   Scattered Clouds
3:30 AM 53.6 °F 50.0 °F 88% 29.95 in 6.2 mi WSW 2.3 mph - N/A   Scattered Clouds
4:00 AM 53.6 °F 50.0 °F 88% 29.95 in 6.2 mi WSW 1.2 mph - N/A   Scattered Clouds
4:30 AM 55.4 °F 51.8 °F 88% 29.95 in 6.2 mi SSW 2.3 mph - N/A   Scattered Clouds
5:00 AM 55.4 °F 53.6 °F 94% 29.95 in 6.2 mi SW 4.6 mph - N/A   Scattered Clouds
5:30 AM 55.4 °F 53.6 °F 94% 29.95 in 6.2 mi SW 3.5 mph - N/A   Scattered Clouds
6:00 AM 56 °F 53 °F 87% 29.94 in 6 mi SW 4.6 mph - -   Partly Cloudy
6:00 AM 57.2 °F 53.6 °F 88% 29.95 in 6.2 mi SW 4.6 mph - N/A   Scattered Clouds
6:30 AM 57.2 °F 53.6 °F 88% 29.95 in 6.2 mi SSW 4.6 mph - N/A   Scattered Clouds
7:00 AM 57.2 °F 53.6 °F 88% 29.95 in 5.6 mi Variable 1.2 mph - N/A   Scattered Clouds
7:30 AM 57.2 °F 53.6 °F 88% 29.98 in 5.6 mi SSW 4.6 mph - N/A   Scattered Clouds
8:00 AM 59.0 °F 53.6 °F 82% 29.98 in 6.2 mi South 6.9 mph - N/A   Scattered Clouds
8:30 AM 59.0 °F 53.6 °F 82% 29.95 in 6.2 mi SSE 3.5 mph - N/A   Scattered Clouds
9:00 AM 61 °F 55 °F 74% 29.94 in 6 mi SW 4.6 mph - -   Mostly Cloudy
9:00 AM 60.8 °F 53.6 °F 77% 29.95 in 6.2 mi SW 4.6 mph - N/A   Scattered Clouds
9:30 AM 62.6 °F 55.4 °F 77% 29.95 in 6.2 mi WSW 5.8 mph - N/A   Scattered Clouds
10:00 AM 62.6 °F 55.4 °F 77% 29.95 in 6.2 mi Variable 2.3 mph - N/A   Scattered Clouds
10:30 AM 64.4 °F 53.6 °F 68% 29.95 in 6.2 mi NW 6.9 mph - N/A   Scattered Clouds
11:00 AM 64.4 °F 53.6 °F 68% 29.95 in 6.2 mi NW 9.2 mph - N/A   Scattered Clouds
11:30 AM 64.4 °F 53.6 °F 68% 29.95 in 6.2 mi NW 8.1 mph - N/A   Scattered Clouds
12:00 PM 64 °F 54 °F 60% 29.92 in 6 mi WNW 9.2 mph - -   Mostly Cloudy
12:00 PM 62.6 °F 53.6 °F 72% 29.95 in 6.2 mi WNW 8.1 mph - N/A   Scattered Clouds
12:30 PM 62.6 °F 53.6 °F 72% 29.95 in 6.2 mi West 9.2 mph - N/A   Scattered Clouds
1:00 PM 62.6 °F 53.6 °F 72% 29.92 in 6.2 mi Variable 2.3 mph - N/A   Scattered Clouds
1:30 PM 66.2 °F 53.6 °F 64% 29.92 in 6.2 mi Variable 1.2 mph - N/A   Scattered Clouds
2:00 PM 64.4 °F 53.6 °F 68% 29.89 in 6.2 mi ESE 4.6 mph - N/A   Scattered Clouds
2:30 PM 68.0 °F 53.6 °F 60% 29.86 in 6.2 mi Variable 2.3 mph - N/A   Scattered Clouds
3:00 PM 69 °F 51 °F 43% 29.80 in 6 mi South 3.5 mph - -   Mostly Cloudy
3:00 PM 68.0 °F 51.8 °F 56% 29.86 in 6.2 mi Variable 3.5 mph - N/A   Scattered Clouds
3:30 PM 66.2 °F 51.8 °F 60% 29.83 in 6.2 mi SW 4.6 mph - N/A   Scattered Clouds
4:00 PM 66.2 °F 50.0 °F 56% 29.83 in 6.2 mi WSW 5.8 mph - N/A   Scattered Clouds
4:30 PM 66.2 °F 51.8 °F 60% 29.83 in 6.2 mi WNW 6.9 mph - N/A   Scattered Clouds
5:00 PM 62.6 °F 53.6 °F 72% 29.86 in 6.2 mi NW 13.8 mph - N/A   Scattered Clouds
5:30 PM 60.8 °F 53.6 °F 77% 29.83 in 6.2 mi WNW 11.5 mph - N/A   Mostly Cloudy
6:00 PM 60 °F 54 °F 73% 29.83 in 6 mi WNW 10.4 mph - -   Mostly Cloudy
6:00 PM 59.0 °F 53.6 °F 82% 29.86 in 6.2 mi WNW 10.4 mph - N/A   Mostly Cloudy
6:30 PM 59.0 °F 53.6 °F 82% 29.83 in 6.2 mi NW 9.2 mph - N/A   Mostly Cloudy
7:00 PM 59.0 °F 53.6 °F 82% 29.86 in 6.2 mi WNW 10.4 mph - N/A   Mostly Cloudy
7:30 PM 57.2 °F 53.6 °F 88% 29.86 in 6.2 mi NW 11.5 mph - N/A   Mostly Cloudy
8:00 PM 57.2 °F 53.6 °F 88% 29.86 in 6.2 mi WNW 9.2 mph - N/A   Mostly Cloudy
8:30 PM 57.2 °F 55.4 °F 94% 29.86 in 6.2 mi WNW 8.1 mph - N/A   Mostly Cloudy
9:00 PM 57.2 °F 55.4 °F 94% 29.86 in 6.2 mi WNW 10.4 mph - N/A   Mostly Cloudy
9:30 PM 57.2 °F 55.4 °F 94% 29.86 in 6.2 mi WNW 9.2 mph - N/A   Mostly Cloudy
10:00 PM 55.4 °F 55.4 °F 100% 29.86 in 6.2 mi West 13.8 mph - N/A   Mostly Cloudy
10:30 PM 55.4 °F 55.4 °F 100% 29.86 in 5.0 mi West 11.5 mph - N/A Rain Light Rain
11:00 PM 55.4 °F 55.4 °F 100% 29.86 in 5.6 mi WSW 5.8 mph - N/A Rain Light Rain
11:30 PM 55.4 °F 55.4 °F 100% 29.83 in 4.3 mi Variable 1.2 mph - N/A Rain Light Rain